^^
Your Local Weather - Clay, NY Station Historical Data
Daily Summary for January 24, 2017 Units:  English    Metric   Both
« Previous Day
Next Day »
Daily Weekly Monthly Yearly Custom
  High: Low: Average:
Temperature: 33.0 °F 28.9 °F 30.8 °F
Dew Point: 30.8 °F 26.3 °F 28.6 °F
Humidity: 94% 89% 92%
Wind Speed: 4.0mph 0.0mph 2.1mph
Wind Gust: 7.0mph - -
Wind- - WNW
Pressure: 29.70 in 29.52 in -
Precipitation: 0.38 in    
Historical Graphs
 
 
Tabular Data for January 24, 2017
Time Temperature Dew Point Pressure Wind Wind Speed Wind Gust Humidity Rainfall Rate (Hourly) solar
00:02 31.9 °F 29.0 °F 29.70 in NE 3.0 mph 4.0 mph 89% 0.00 in 0 W/m2
00:08 31.9 °F 29.0 °F 29.70 in NE 2.0 mph 6.0 mph 89% 0.00 in 0 W/m2
00:14 31.9 °F 29.0 °F 29.69 in NNE 2.0 mph 3.0 mph 89% 0.00 in 0 W/m2
00:20 31.9 °F 29.0 °F 29.69 in NNE 2.0 mph 3.0 mph 89% 0.00 in 0 W/m2
00:26 32.0 °F 29.1 °F 29.69 in North 1.0 mph 3.0 mph 89% 0.00 in 0 W/m2
00:32 32.0 °F 29.4 °F 29.68 in NNE 2.0 mph 2.0 mph 90% 0.00 in 0 W/m2
00:38 32.0 °F 29.4 °F 29.68 in NE 2.0 mph 2.0 mph 90% 0.05 in 0 W/m2
00:44 32.0 °F 29.4 °F 29.68 in NNW 2.0 mph 3.0 mph 90% 0.05 in 0 W/m2
00:50 32.0 °F 29.4 °F 29.67 in North 2.0 mph 3.0 mph 90% 0.05 in 0 W/m2
00:56 32.0 °F 29.4 °F 29.67 in NNW 2.0 mph 3.0 mph 90% 0.00 in 0 W/m2
01:02 32.0 °F 29.7 °F 29.67 in North 2.0 mph 2.0 mph 91% 0.00 in 0 W/m2
01:08 32.0 °F 29.7 °F 29.67 in North 2.0 mph 2.0 mph 91% 0.00 in 0 W/m2
01:14 32.0 °F 29.7 °F 29.66 in North 1.0 mph 2.0 mph 91% 0.14 in 0 W/m2
01:20 32.0 °F 29.7 °F 29.66 in NE 1.0 mph 1.0 mph 91% 0.08 in 0 W/m2
01:26 32.0 °F 29.7 °F 29.66 in North 1.0 mph 3.0 mph 91% 0.08 in 0 W/m2
01:32 32.0 °F 29.7 °F 29.66 in North 1.0 mph 3.0 mph 91% 0.10 in 0 W/m2
01:38 32.0 °F 29.7 °F 29.66 in North 2.0 mph 3.0 mph 91% 0.08 in 0 W/m2
01:44 32.0 °F 29.7 °F 29.65 in North 2.0 mph 2.0 mph 91% 0.11 in 0 W/m2
01:50 32.0 °F 29.9 °F 29.65 in North 2.0 mph 2.0 mph 92% 0.09 in 0 W/m2
01:56 32.1 °F 30.0 °F 29.65 in North 1.0 mph 2.0 mph 92% 0.07 in 0 W/m2
02:02 32.1 °F 30.0 °F 29.65 in NNW 2.0 mph 2.0 mph 92% 0.07 in 0 W/m2
02:08 32.0 °F 29.9 °F 29.64 in NNW 2.0 mph 3.0 mph 92% 0.06 in 0 W/m2
02:14 32.1 °F 30.0 °F 29.64 in NNW 3.0 mph 3.0 mph 92% 0.07 in 0 W/m2
02:20 32.1 °F 30.0 °F 29.64 in NNW 2.0 mph 2.0 mph 92% 0.07 in 0 W/m2
02:26 32.0 °F 29.9 °F 29.64 in NNW 2.0 mph 3.0 mph 92% 0.06 in 0 W/m2
02:32 32.0 °F 29.9 °F 29.63 in NNW 2.0 mph 2.0 mph 92% 0.08 in 0 W/m2
02:38 32.0 °F 29.9 °F 29.63 in NNW 2.0 mph 2.0 mph 92% 0.08 in 0 W/m2
02:44 32.0 °F 29.9 °F 29.63 in NW 2.0 mph 4.0 mph 92% 0.05 in 0 W/m2
02:50 31.9 °F 29.8 °F 29.63 in NNE 2.0 mph 2.0 mph 92% 0.10 in 0 W/m2
02:56 31.9 °F 29.8 °F 29.63 in NNW 2.0 mph 3.0 mph 92% 0.08 in 0 W/m2
03:02 31.9 °F 29.8 °F 29.63 in NW 2.0 mph 2.0 mph 92% 0.07 in 0 W/m2
03:08 31.8 °F 29.7 °F 29.63 in NW 1.0 mph 2.0 mph 92% 0.08 in 0 W/m2
03:14 31.8 °F 29.7 °F 29.63 in NNW 1.0 mph 2.0 mph 92% 0.06 in 0 W/m2
03:20 31.8 °F 30.0 °F 29.62 in NNW 2.0 mph 3.0 mph 93% 0.06 in 0 W/m2
03:26 31.7 °F 29.9 °F 29.62 in WNW 2.0 mph 4.0 mph 93% 0.09 in 0 W/m2
03:32 31.7 °F 29.9 °F 29.62 in NNW 2.0 mph 3.0 mph 93% 0.12 in 0 W/m2
03:38 31.7 °F 29.6 °F 29.62 in NNW 3.0 mph 3.0 mph 92% 0.09 in 0 W/m2
03:44 31.7 °F 29.6 °F 29.62 in NNW 2.0 mph 5.0 mph 92% 0.06 in 0 W/m2
03:50 31.7 °F 29.6 °F 29.62 in NNW 3.0 mph 3.0 mph 92% 0.10 in 0 W/m2
03:56 31.7 °F 29.9 °F 29.62 in NW 2.0 mph 3.0 mph 93% 0.08 in 0 W/m2
04:02 31.6 °F 29.8 °F 29.61 in NW 2.0 mph 6.0 mph 93% 0.07 in 0 W/m2
04:08 31.6 °F 29.8 °F 29.61 in NW 3.0 mph 6.0 mph 93% 0.08 in 0 W/m2
04:14 31.6 °F 29.8 °F 29.61 in NNW 2.0 mph 4.0 mph 93% 0.06 in 0 W/m2
04:20 31.5 °F 29.7 °F 29.61 in North 3.0 mph 3.0 mph 93% 0.04 in 0 W/m2
04:26 31.5 °F 29.7 °F 29.61 in NNW 3.0 mph 4.0 mph 93% 0.00 in 0 W/m2
04:32 31.5 °F 29.7 °F 29.61 in WNW 3.0 mph 4.0 mph 93% 0.00 in 0 W/m2
04:38 31.5 °F 29.7 °F 29.61 in NW 3.0 mph 4.0 mph 93% 0.00 in 0 W/m2
04:44 31.5 °F 29.7 °F 29.61 in NNW 3.0 mph 4.0 mph 93% 0.00 in 0 W/m2
04:50 31.4 °F 29.6 °F 29.60 in NW 3.0 mph 3.0 mph 93% 0.00 in 0 W/m2
04:56 31.4 °F 29.6 °F 29.60 in North 3.0 mph 4.0 mph 93% 0.00 in 0 W/m2
05:02 31.4 °F 29.6 °F 29.61 in NW 3.0 mph 4.0 mph 93% 0.00 in 0 W/m2
05:08 31.3 °F 29.5 °F 29.61 in NNW 3.0 mph 4.0 mph 93% 0.00 in 0 W/m2
05:14 31.3 °F 29.5 °F 29.61 in NNW 2.0 mph 6.0 mph 93% 0.00 in 0 W/m2
05:20 31.3 °F 29.5 °F 29.60 in NNW 2.0 mph 4.0 mph 93% 0.00 in 0 W/m2
05:26 31.2 °F 29.4 °F 29.60 in North 3.0 mph 4.0 mph 93% 0.00 in 0 W/m2
05:32 31.1 °F 29.0 °F 29.61 in North 3.0 mph 3.0 mph 92% 0.00 in 0 W/m2
05:38 31.1 °F 29.3 °F 29.60 in NW 2.0 mph 5.0 mph 93% 0.00 in 0 W/m2
05:44 31.0 °F 29.2 °F 29.60 in NNW 2.0 mph 4.0 mph 93% 0.00 in 0 W/m2
05:50 31.0 °F 29.2 °F 29.60 in NNW 2.0 mph 2.0 mph 93% 0.00 in 0 W/m2
05:56 31.0 °F 29.2 °F 29.60 in NW 2.0 mph 2.0 mph 93% 0.00 in 0 W/m2
06:02 31.0 °F 29.2 °F 29.60 in NNW 3.0 mph 4.0 mph 93% 0.00 in 0 W/m2
06:08 30.9 °F 29.1 °F 29.60 in North 2.0 mph 4.0 mph 93% 0.00 in 0 W/m2
06:14 30.9 °F 29.1 °F 29.60 in NW 2.0 mph 5.0 mph 93% 0.00 in 0 W/m2
06:20 30.9 °F 29.1 °F 29.60 in NW 2.0 mph 2.0 mph 93% 0.00 in 0 W/m2
06:26 30.9 °F 29.1 °F 29.60 in NNW 2.0 mph 2.0 mph 93% 0.00 in 0 W/m2
06:32 30.8 °F 29.0 °F 29.60 in NNW 2.0 mph 4.0 mph 93% 0.00 in 0 W/m2
06:38 30.8 °F 29.0 °F 29.60 in NNW 3.0 mph 4.0 mph 93% 0.00 in 0 W/m2
06:44 30.8 °F 29.0 °F 29.60 in NNW 3.0 mph 4.0 mph 93% 0.00 in 0 W/m2
06:50 30.8 °F 29.0 °F 29.60 in NW 2.0 mph 2.0 mph 93% 0.00 in 0 W/m2
06:56 30.8 °F 29.0 °F 29.60 in NW 3.0 mph 6.0 mph 93% 0.00 in 0 W/m2
07:02 30.7 °F 28.9 °F 29.60 in NNW 3.0 mph 3.0 mph 93% 0.00 in 0 W/m2
07:08 30.7 °F 28.9 °F 29.60 in NNW 2.0 mph 3.0 mph 93% 0.00 in 0 W/m2
07:14 30.7 °F 28.9 °F 29.60 in North 3.0 mph 3.0 mph 93% 0.00 in 0 W/m2
07:20 30.7 °F 28.9 °F 29.60 in NNW 3.0 mph 3.0 mph 93% 0.00 in 0 W/m2
07:26 30.6 °F 28.8 °F 29.59 in NW 2.0 mph 4.0 mph 93% 0.00 in 0 W/m2
07:32 30.6 °F 28.8 °F 29.59 in NW 3.0 mph 5.0 mph 93% 0.00 in 0 W/m2
07:38 30.6 °F 29.1 °F 29.59 in NNW 3.0 mph 5.0 mph 94% 0.00 in 0 W/m2
07:44 30.6 °F 29.1 °F 29.59 in NNW 3.0 mph 5.0 mph 94% 0.00 in 0 W/m2
07:50 30.6 °F 28.8 °F 29.59 in NNW 3.0 mph 3.0 mph 93% 0.00 in 0 W/m2
07:56 30.6 °F 29.1 °F 29.58 in NW 3.0 mph 3.0 mph 94% 0.00 in 5 W/m2
08:02 30.6 °F 29.1 °F 29.59 in North 3.0 mph 4.0 mph 94% 0.00 in 7 W/m2
08:08 30.6 °F 29.1 °F 29.58 in NNW 3.0 mph 4.0 mph 94% 0.00 in 7 W/m2
08:14 30.6 °F 29.1 °F 29.58 in NNW 2.0 mph 3.0 mph 94% 0.00 in 11 W/m2
08:20 30.7 °F 29.2 °F 29.58 in NW 2.0 mph 2.0 mph 94% 0.00 in 14 W/m2
08:26 30.7 °F 29.2 °F 29.58 in North 3.0 mph 4.0 mph 94% 0.00 in 16 W/m2
08:32 30.7 °F 29.2 °F 29.58 in NW 3.0 mph 3.0 mph 94% 0.00 in 23 W/m2
08:38 30.7 °F 29.2 °F 29.59 in West 3.0 mph 3.0 mph 94% 0.00 in 25 W/m2
08:46 30.8 °F 29.3 °F 29.59 in North 3.0 mph 4.0 mph 94% 0.00 in 25 W/m2
08:52 30.8 °F 29.3 °F 29.58 in NNW 3.0 mph 5.0 mph 94% 0.00 in 21 W/m2
08:58 30.8 °F 29.0 °F 29.58 in NW 3.0 mph 3.0 mph 93% 0.00 in 25 W/m2
09:06 30.8 °F 29.0 °F 29.58 in NNW 3.0 mph 5.0 mph 93% 0.00 in 25 W/m2
09:12 30.8 °F 29.0 °F 29.58 in North 2.0 mph 3.0 mph 93% 0.00 in 21 W/m2
09:18 30.9 °F 29.1 °F 29.58 in NNW 2.0 mph 3.0 mph 93% 0.00 in 25 W/m2
09:24 30.9 °F 29.1 °F 29.58 in NNW 2.0 mph 5.0 mph 93% 0.00 in 26 W/m2
09:30 30.8 °F 29.0 °F 29.58 in NW 3.0 mph 3.0 mph 93% 0.00 in 32 W/m2
09:36 30.8 °F 29.0 °F 29.58 in WNW 4.0 mph 4.0 mph 93% 0.00 in 30 W/m2
09:42 30.9 °F 29.1 °F 29.59 in NNW 3.0 mph 3.0 mph 93% 0.00 in 32 W/m2
09:48 30.8 °F 29.0 °F 29.58 in NNW 3.0 mph 5.0 mph 93% 0.00 in 37 W/m2
09:54 30.9 °F 29.1 °F 29.58 in NNW 3.0 mph 5.0 mph 93% 0.00 in 37 W/m2
10:00 30.8 °F 29.0 °F 29.59 in NW 3.0 mph 4.0 mph 93% 0.00 in 39 W/m2
10:06 30.9 °F 29.1 °F 29.59 in NW 3.0 mph 4.0 mph 93% 0.00 in 40 W/m2
10:12 30.9 °F 29.1 °F 29.59 in NNW 2.0 mph 3.0 mph 93% 0.00 in 37 W/m2
10:18 30.9 °F 29.1 °F 29.59 in NW 3.0 mph 5.0 mph 93% 0.00 in 35 W/m2
10:24 30.8 °F 29.0 °F 29.58 in WNW 3.0 mph 5.0 mph 93% 0.00 in 35 W/m2
10:30 30.8 °F 29.0 °F 29.59 in NW 3.0 mph 7.0 mph 93% 0.00 in 33 W/m2
10:36 30.8 °F 29.0 °F 29.59 in NNW 4.0 mph 7.0 mph 93% 0.00 in 28 W/m2
10:42 30.8 °F 29.0 °F 29.59 in NW 3.0 mph 3.0 mph 93% 0.00 in 25 W/m2
10:48 30.8 °F 29.0 °F 29.58 in NW 2.0 mph 3.0 mph 93% 0.00 in 25 W/m2
10:54 30.9 °F 29.1 °F 29.58 in NW 2.0 mph 3.0 mph 93% 0.00 in 30 W/m2
11:00 31.0 °F 29.2 °F 29.58 in NW 2.0 mph 2.0 mph 93% 0.00 in 40 W/m2
11:06 31.1 °F 29.3 °F 29.58 in NW 1.0 mph 2.0 mph 93% 0.00 in 37 W/m2
11:12 31.2 °F 29.4 °F 29.58 in Calm     93% 0.00 in 44 W/m2
11:18 31.3 °F 29.5 °F 29.57 in Calm     93% 0.00 in 46 W/m2
11:24 31.3 °F 29.5 °F 29.57 in Calm     93% 0.00 in 46 W/m2
11:30 31.3 °F 29.5 °F 29.57 in Calm     93% 0.00 in 44 W/m2
11:36 31.4 °F 29.6 °F 29.57 in Calm     93% 0.00 in 51 W/m2
11:42 31.3 °F 29.5 °F 29.56 in Calm     93% 0.00 in 54 W/m2
11:48 31.5 °F 29.7 °F 29.56 in Calm     93% 0.00 in 56 W/m2
11:53 31.6 °F 29.8 °F 29.56 in Calm     93% 0.00 in 65 W/m2
12:00 31.6 °F 29.5 °F 29.56 in Calm     92% 0.00 in 72 W/m2
12:06 31.8 °F 30.0 °F 29.56 in Calm     93% 0.00 in 86 W/m2
12:12 31.9 °F 29.8 °F 29.55 in Calm   2.0 mph 92% 0.00 in 104 W/m2
12:18 32.0 °F 29.9 °F 29.55 in NNW 2.0 mph 3.0 mph 92% 0.00 in 114 W/m2
12:24 32.3 °F 30.2 °F 29.55 in NNW 2.0 mph 2.0 mph 92% 0.00 in 127 W/m2
12:30 32.6 °F 30.5 °F 29.54 in NNW 1.0 mph 1.0 mph 92% 0.00 in 137 W/m2
12:36 32.7 °F 30.6 °F 29.54 in NNW 1.0 mph 2.0 mph 92% 0.05 in 156 W/m2
12:42 32.9 °F 30.8 °F 29.54 in NNW 1.0 mph 3.0 mph 92% 0.05 in 179 W/m2
12:48 33.0 °F 30.7 °F 29.53 in NNW 1.0 mph 3.0 mph 91% 0.04 in 202 W/m2
12:54 33.0 °F 30.7 °F 29.52 in WNW 1.0 mph 3.0 mph 91% 0.04 in 179 W/m2
13:00 32.8 °F 30.5 °F 29.52 in WNW 2.0 mph 2.0 mph 91% 0.06 in 171 W/m2
13:06 32.7 °F 30.4 °F 29.52 in WNW 2.0 mph 5.0 mph 91% 0.06 in 120 W/m2
13:12 32.5 °F 30.2 °F 29.52 in WNW 2.0 mph 3.0 mph 91% 0.06 in 100 W/m2
13:18 32.4 °F 30.1 °F 29.52 in WNW 1.0 mph 3.0 mph 91% 0.05 in 90 W/m2
13:26 32.2 °F 29.9 °F 29.52 in WNW 1.0 mph 2.0 mph 91% 0.05 in 97 W/m2
13:32 32.1 °F 29.8 °F 29.52 in WNW 2.0 mph 2.0 mph 91% 0.04 in 98 W/m2
13:38 32.1 °F 29.8 °F 29.52 in WNW 2.0 mph 2.0 mph 91% 0.00 in 86 W/m2
13:46 32.1 °F 29.8 °F 29.52 in WNW 1.0 mph 2.0 mph 91% 0.00 in 77 W/m2
13:52 32.0 °F 29.7 °F 29.52 in WNW 2.0 mph 3.0 mph 91% 0.00 in 77 W/m2
13:58 31.9 °F 29.6 °F 29.52 in WNW 2.0 mph 3.0 mph 91% 0.00 in 81 W/m2
14:04 31.9 °F 29.8 °F 29.52 in WNW 1.0 mph 2.0 mph 92% 0.00 in 79 W/m2
14:10 31.9 °F 29.8 °F 29.52 in WNW 2.0 mph 2.0 mph 92% 0.00 in 72 W/m2
14:16 32.0 °F 29.9 °F 29.52 in WNW 1.0 mph 2.0 mph 92% 0.00 in 67 W/m2
14:22 31.9 °F 29.8 °F 29.53 in WSW 1.0 mph 4.0 mph 92% 0.00 in 63 W/m2
14:28 31.8 °F 29.7 °F 29.53 in WSW 2.0 mph 4.0 mph 92% 0.00 in 67 W/m2
14:36 31.8 °F 29.7 °F 29.53 in WSW 1.0 mph 2.0 mph 92% 0.00 in 56 W/m2
14:42 31.8 °F 29.7 °F 29.53 in WNW 2.0 mph 2.0 mph 92% 0.00 in 56 W/m2
14:48 31.8 °F 29.7 °F 29.54 in WNW 3.0 mph 3.0 mph 92% 0.00 in 53 W/m2
14:54 31.7 °F 29.4 °F 29.54 in West 3.0 mph 3.0 mph 91% 0.00 in 44 W/m2
15:00 31.8 °F 29.7 °F 29.54 in West 2.0 mph 2.0 mph 92% 0.00 in 49 W/m2
15:06 31.7 °F 29.6 °F 29.54 in WNW 2.0 mph 3.0 mph 92% 0.00 in 44 W/m2
15:12 31.6 °F 29.5 °F 29.54 in NW 2.0 mph 4.0 mph 92% 0.00 in 47 W/m2
16:26 30.8 °F 28.5 °F 29.55 in NW 3.0 mph 4.0 mph 91% 0.00 in 7 W/m2
16:32 30.8 °F 28.5 °F 29.56 in WNW 3.0 mph 4.0 mph 91% 0.00 in 5 W/m2
16:38 30.7 °F 28.7 °F 29.56 in NW 2.0 mph 3.0 mph 92% 0.00 in 5 W/m2
16:43 30.5 °F 28.5 °F 29.57 in NW 2.0 mph 4.0 mph 92% 0.00 in 7 W/m2
16:50 30.3 °F 28.0 °F 29.57 in NW 2.0 mph 5.0 mph 91% 0.00 in 9 W/m2
16:55 30.2 °F 27.9 °F 29.57 in WNW 3.0 mph 3.0 mph 91% 0.00 in 11 W/m2
17:02 30.0 °F 27.7 °F 29.57 in NNW 4.0 mph 4.0 mph 91% 0.00 in 0 W/m2
17:08 30.0 °F 27.4 °F 29.57 in WNW 4.0 mph 4.0 mph 90% 0.00 in 0 W/m2
17:14 30.0 °F 27.4 °F 29.58 in NW 3.0 mph 4.0 mph 90% 0.00 in 0 W/m2
17:19 30.0 °F 27.4 °F 29.59 in WNW 2.0 mph 2.0 mph 90% 0.00 in 0 W/m2
17:26 29.9 °F 27.3 °F 29.59 in NNW 2.0 mph 7.0 mph 90% 0.00 in 0 W/m2
17:32 29.9 °F 27.3 °F 29.59 in NW 3.0 mph 3.0 mph 90% 0.00 in 0 W/m2
17:38 29.9 °F 27.3 °F 29.59 in NW 3.0 mph 4.0 mph 90% 0.00 in 0 W/m2
17:43 29.8 °F 27.2 °F 29.59 in WNW 3.0 mph 3.0 mph 90% 0.00 in 0 W/m2
17:50 29.8 °F 27.2 °F 29.59 in NW 3.0 mph 3.0 mph 90% 0.00 in 0 W/m2
17:56 29.8 °F 27.2 °F 29.59 in WNW 3.0 mph 7.0 mph 90% 0.00 in 0 W/m2
18:02 29.8 °F 27.2 °F 29.59 in WNW 3.0 mph 5.0 mph 90% 0.00 in 0 W/m2
18:08 29.7 °F 27.1 °F 29.59 in NW 3.0 mph 5.0 mph 90% 0.00 in 0 W/m2
18:14 29.7 °F 27.1 °F 29.58 in West 3.0 mph 4.0 mph 90% 0.00 in 0 W/m2
18:19 29.7 °F 27.1 °F 29.58 in WNW 3.0 mph 3.0 mph 90% 0.00 in 0 W/m2
18:26 29.6 °F 27.0 °F 29.58 in WNW 3.0 mph 6.0 mph 90% 0.00 in 0 W/m2
18:32 29.6 °F 27.0 °F 29.58 in NW 3.0 mph 7.0 mph 90% 0.00 in 0 W/m2
18:38 29.5 °F 26.9 °F 29.59 in NW 3.0 mph 7.0 mph 90% 0.00 in 0 W/m2
18:43 29.5 °F 26.9 °F 29.59 in NW 2.0 mph 5.0 mph 90% 0.00 in 0 W/m2
18:49 29.4 °F 26.8 °F 29.59 in West 3.0 mph 3.0 mph 90% 0.00 in 0 W/m2
18:56 29.4 °F 27.1 °F 29.60 in WNW 2.0 mph 3.0 mph 91% 0.00 in 0 W/m2
19:02 29.4 °F 27.1 °F 29.60 in NNW 2.0 mph 4.0 mph 91% 0.00 in 0 W/m2
19:08 29.4 °F 27.1 °F 29.60 in NW 2.0 mph 4.0 mph 91% 0.00 in 0 W/m2
19:14 29.4 °F 27.1 °F 29.60 in WNW 2.0 mph 3.0 mph 91% 0.00 in 0 W/m2
19:20 29.4 °F 27.1 °F 29.60 in WNW 2.0 mph 4.0 mph 91% 0.00 in 0 W/m2
19:25 29.4 °F 27.1 °F 29.60 in NW 3.0 mph 6.0 mph 91% 0.00 in 0 W/m2
19:32 29.3 °F 26.7 °F 29.60 in WNW 3.0 mph 7.0 mph 90% 0.00 in 0 W/m2
19:38 29.3 °F 26.7 °F 29.60 in WNW 3.0 mph 7.0 mph 90% 0.00 in 0 W/m2
19:44 29.3 °F 26.7 °F 29.60 in NW 3.0 mph 5.0 mph 90% 0.00 in 0 W/m2
19:49 29.3 °F 26.7 °F 29.60 in NW 2.0 mph 2.0 mph 90% 0.00 in 0 W/m2
19:56 29.3 °F 26.7 °F 29.60 in WNW 2.0 mph 2.0 mph 90% 0.00 in 0 W/m2
20:02 29.3 °F 26.7 °F 29.60 in WNW 3.0 mph 3.0 mph 90% 0.00 in 0 W/m2
20:08 29.3 °F 26.7 °F 29.60 in WNW 2.0 mph 3.0 mph 90% 0.00 in 0 W/m2
20:14 29.2 °F 26.6 °F 29.60 in WNW 2.0 mph 3.0 mph 90% 0.00 in 0 W/m2
20:19 29.2 °F 26.6 °F 29.60 in WNW 2.0 mph 3.0 mph 90% 0.00 in 0 W/m2
20:26 29.2 °F 26.6 °F 29.60 in NW 2.0 mph 3.0 mph 90% 0.00 in 0 W/m2
20:32 29.2 °F 26.6 °F 29.60 in NW 3.0 mph 3.0 mph 90% 0.00 in 0 W/m2
20:38 29.2 °F 26.6 °F 29.61 in NW 2.0 mph 3.0 mph 90% 0.00 in 0 W/m2
20:44 29.2 °F 26.9 °F 29.61 in NW 2.0 mph 6.0 mph 91% 0.00 in 0 W/m2
20:49 29.2 °F 26.6 °F 29.61 in NW 2.0 mph 2.0 mph 90% 0.00 in 0 W/m2
20:55 29.2 °F 26.9 °F 29.62 in NW 1.0 mph 2.0 mph 91% 0.00 in 0 W/m2
21:02 29.2 °F 26.6 °F 29.61 in NW 1.0 mph 3.0 mph 90% 0.00 in 0 W/m2
21:08 29.2 °F 26.6 °F 29.62 in NW 2.0 mph 3.0 mph 90% 0.00 in 0 W/m2
21:13 29.3 °F 26.7 °F 29.62 in NW 1.0 mph 3.0 mph 90% 0.00 in 0 W/m2
21:19 29.3 °F 26.7 °F 29.62 in West 1.0 mph 1.0 mph 90% 0.00 in 0 W/m2
21:26 29.4 °F 26.8 °F 29.62 in SSW 1.0 mph 2.0 mph 90% 0.00 in 0 W/m2
21:32 29.3 °F 26.7 °F 29.62 in SW 1.0 mph 2.0 mph 90% 0.00 in 0 W/m2
21:38 29.3 °F 26.7 °F 29.62 in SW 2.0 mph 2.0 mph 90% 0.00 in 0 W/m2
21:44 29.2 °F 26.6 °F 29.62 in WSW 2.0 mph 3.0 mph 90% 0.00 in 0 W/m2
21:49 29.2 °F 26.6 °F 29.62 in WNW 2.0 mph 2.0 mph 90% 0.00 in 0 W/m2
21:56 29.2 °F 26.6 °F 29.62 in WNW 1.0 mph 3.0 mph 90% 0.00 in 0 W/m2
22:02 29.2 °F 26.6 °F 29.62 in West 2.0 mph 2.0 mph 90% 0.00 in 0 W/m2
22:08 29.2 °F 26.6 °F 29.62 in West 2.0 mph 2.0 mph 90% 0.00 in 0 W/m2
22:14 29.2 °F 26.6 °F 29.62 in West 2.0 mph 4.0 mph 90% 0.00 in 0 W/m2
22:20 29.2 °F 26.6 °F 29.62 in West 2.0 mph 2.0 mph 90% 0.00 in 0 W/m2
22:25 29.2 °F 26.9 °F 29.62 in NW 2.0 mph 2.0 mph 91% 0.00 in 0 W/m2
22:32 29.2 °F 26.6 °F 29.61 in WSW 2.0 mph 2.0 mph 90% 0.00 in 0 W/m2
22:38 29.1 °F 26.8 °F 29.62 in WSW 1.0 mph 2.0 mph 91% 0.00 in 0 W/m2
22:44 29.1 °F 26.8 °F 29.62 in WSW 1.0 mph 2.0 mph 91% 0.00 in 0 W/m2
22:50 29.1 °F 26.8 °F 29.62 in NW 2.0 mph 2.0 mph 91% 0.00 in 0 W/m2
22:56 29.1 °F 26.8 °F 29.62 in NW 2.0 mph 3.0 mph 91% 0.00 in 0 W/m2
23:02 29.1 °F 26.5 °F 29.62 in NW 1.0 mph 3.0 mph 90% 0.00 in 0 W/m2
23:08 29.0 °F 26.4 °F 29.62 in NW 1.0 mph 3.0 mph 90% 0.00 in 0 W/m2
23:14 29.0 °F 26.4 °F 29.62 in NW 1.0 mph 1.0 mph 90% 0.00 in 0 W/m2
23:19 29.0 °F 26.4 °F 29.62 in NW 1.0 mph 2.0 mph 90% 0.00 in 0 W/m2
23:26 29.0 °F 26.4 °F 29.62 in NW 1.0 mph 2.0 mph 90% 0.00 in 0 W/m2
23:32 29.0 °F 26.4 °F 29.62 in NW 1.0 mph 2.0 mph 90% 0.00 in 0 W/m2
23:38 29.0 °F 26.4 °F 29.62 in WNW 2.0 mph 4.0 mph 90% 0.00 in 0 W/m2
23:44 29.0 °F 26.4 °F 29.62 in WNW 2.0 mph 2.0 mph 90% 0.00 in 0 W/m2
23:50 29.0 °F 26.4 °F 29.62 in WNW 1.0 mph 1.0 mph 90% 0.00 in 0 W/m2
23:56 28.9 °F 26.3 °F 29.62 in NW 2.0 mph 3.0 mph 90% 0.00 in 0 W/m2
Country Meadow, Clay, NY, USA
Compliments of Weather Underground - 2 mb